カタログに戻る

PRAETORIAN SDA_511

運用中PO
NORAD 100069·PAYLOAD·🇺🇸 United States

打ち上げ Jul 16, 2026 から Vandenberg Space Force Base

Loading…

次のパス (今後24時間)

TLE

最新Source: Space-Track

元期: Sep 14, 2026, 11:16 UTC

1 A0069U 26163L   26257.46991247  .00000070  00000-0  50288-4 0  9991
2 A0069  81.4772 255.4509 0015125  53.9149 306.3407 13.85677547  8263

AllMySatでPRAETORIAN SDA_511をリアルタイム追跡

Download on the App Store